User: anonymous   Login
Location: Oshawa
(43.9000°N, 78.8670°W)
Time: 23:02:29
(UTC-05:00)
Language:

S-56A Canister/Altair - Orbit

View from above orbital plane
View from above orbital plane
View from above satellite
View from above satellite

Ground track
Ground track

The orbit data is extracted from the following two-line orbital elements,

1    82U 61004B   18055.47461556 +.00000097 +00000-0 +11627-3 0  9994
2    82 038.8596 083.3123 1174799 330.6074 023.3210 12.25922534704223
Epoch (UTC): 24 February 2018 11:23:26
Eccentricity: 0.1174799
inclination: 38.8596°
perigee height: 633 km
apogee height: 2500 km
right ascension of ascending node: 83.3123°
argument of perigee: 330.6074°
revolutions per day: 12.25922534
mean anomaly at epoch: 23.3210°
orbit number at epoch: 70422

The dashed part of the orbit path shows where the satellite is in the earth's shadow,  

DLR